KD7MPG-3 Weather Reports


Display with metric or nautical units.
time (UTC)temp
F
wind
direction
speed
MPH
gust
MPH
rain 1hr
in
rain 24hr
in
rain mn
in
humidity
%
barometer
mb
20260505041201 60 184 1.0 3.0 0.00 0.00 0.00 81 1021.2
20260505040702 60 194 1.0 3.0 0.00 0.00 0.00 81 1021.1
20260505040202 61 220 1.0 3.0 0.00 0.00 0.00 80 1020.9
20260505035701 61 222 1.0 4.0 0.00 0.00 0.00 79 1020.8
20260505035202 61 215 1.0 4.0 0.00 0.00 0.00 79 1020.7
20260505034703 62 197 1.0 3.0 0.00 0.00 0.00 78 1020.7
20260505034157 62 221 1.0 3.0 0.00 0.00 0.00 77 1020.7
20260505033659 62 217 1.0 3.0 0.00 0.00 0.00 77 1020.6
20260505033158 63 229 1.0 4.0 0.00 0.00 0.00 76 1020.5
20260505032659 63 205 2.0 5.0 0.00 0.00 0.00 76 1020.3
20260505032155 64 225 2.0 6.0 0.00 0.00 0.00 75 1020.3
20260505031653 64 239 2.0 8.0 0.00 0.00 0.00 75 1020.3
20260505031154 64 257 3.0 8.0 0.00 0.00 0.00 74 1020.2
20260505030652 65 261 2.0 7.0 0.00 0.00 0.00 73 1020.3
20260505030157 65 236 2.0 7.0 0.00 0.00 0.00 73 1020.1
20260505025652 66 261 2.0 7.0 0.00 0.00 0.00 72 1020.0
20260505025149 67 238 3.0 7.0 0.00 0.00 0.00 72 1019.9
20260505024647 67 213 4.0 9.0 0.00 0.00 0.00 72 1019.8
20260505024148 67 189 3.0 9.0 0.00 0.00 0.00 72 1019.7
20260505023643 68 188 3.0 8.0 0.00 0.00 0.00 73 1019.7
20260505023141 68 188 3.0 10.0 0.00 0.00 0.00 73 1019.7
20260505022641 68 193 3.0 10.0 0.00 0.00 0.00 72 1019.6
20260505022142 69 223 4.0 13.0 0.00 0.00 0.00 71 1019.6
20260505021641 69 273 4.0 13.0 0.00 0.00 0.00 71 1019.6
20260505021142 70 236 3.0 8.0 0.00 0.00 0.00 70 1019.6
20260505020637 70 208 4.0 8.0 0.00 0.00 0.00 69 1019.6
20260505020137 70 238 5.0 10.0 0.00 0.00 0.00 69 1019.6
20260505015635 71 243 6.0 11.0 0.00 0.00 0.00 69 1019.5
20260505015135 71 275 5.0 11.0 0.00 0.00 0.00 67 1019.5
20260505014635 73 220 4.0 11.0 0.00 0.00 0.00 67 1019.5
20260505014136 73 279 4.0 10.0 0.00 0.00 0.00 67 1019.5
20260505013629 73 254 3.0 9.0 0.00 0.00 0.00 67 1019.4
20260505013129 73 237 4.0 8.0 0.00 0.00 0.00 67 1019.4
20260505012629 73 251 4.0 8.0 0.00 0.00 0.00 67 1019.4
20260505012129 74 211 4.0 9.0 0.00 0.00 0.00 67 1019.5
20260505011629 74 261 4.0 9.0 0.00 0.00 0.00 67 1019.5
20260505011129 74 290 5.0 9.0 0.00 0.00 0.00 66 1019.5
20260505010626 74 277 4.0 9.0 0.00 0.00 0.00 66 1019.5
20260505010125 75 226 3.0 8.0 0.00 0.00 0.00 65 1019.6
20260505005626 75 265 4.0 9.0 0.00 0.00 0.00 66 1019.6
20260505005125 75 262 4.0 10.0 0.00 0.00 0.00 65 1019.6
20260505004622 75 269 4.0 10.0 0.00 0.00 0.00 64 1019.5
20260505004124 76 274 4.0 7.0 0.00 0.00 0.00 65 1019.6
20260505003621 76 253 4.0 9.0 0.00 0.00 0.00 65 1019.6
20260505003121 76 242 3.0 9.0 0.00 0.00 0.00 64 1019.6
20260505002622 77 225 3.0 7.0 0.00 0.00 0.00 64 1019.5
20260505002119 77 172 2.0 7.0 0.00 0.00 0.00 63 1019.7
20260505001617 77 202 2.0 7.0 0.00 0.00 0.00 64 1019.7
20260505001117 77 156 2.0 6.0 0.00 0.00 0.00 63 1019.8
20260505000613 77 146 2.0 5.0 0.00 0.00 0.00 63 1019.7
20260505000113 77 153 2.0 7.0 0.00 0.00 0.00 63 1019.8
20260504235611 77 217 2.0 7.0 0.00 0.00 0.00 63 1019.7
20260504235111 77 174 1.0 4.0 0.00 0.00 0.00 63 1019.8
20260504234610 76 216 2.0 8.0 0.00 0.00 0.00 63 1019.8
20260504234112 76 168 3.0 8.0 0.00 0.00 0.00 64 1019.9
20260504233605 76 167 2.0 7.0 0.00 0.00 0.00 65 1019.9
20260504233105 76 252 2.0 5.0 0.00 0.00 0.00 63 1019.9
20260504232605 76 223 2.0 7.0 0.00 0.00 0.00 63 1020.0
20260504232104 76 150 2.0 7.0 0.00 0.00 0.00 65 1019.9
20260504231605 76 113 1.0 7.0 0.00 0.00 0.00 64 1020.0
20260504231106 76 165 2.0 5.0 0.00 0.00 0.00 63 1019.9
20260504230559 76 251 3.0 9.0 0.00 0.00 0.00 64 1020.0
20260504230059 75 137 3.0 9.0 0.00 0.00 0.00 67 1020.1
20260504225559 75 142 3.0 8.0 0.00 0.00 0.00 66 1020.1
20260504225100 75 178 3.0 6.0 0.00 0.00 0.00 65 1020.2
20260504224559 75 158 2.0 8.0 0.00 0.00 0.00 67 1020.2
20260504224100 75 182 3.0 8.0 0.00 0.00 0.00 66 1020.3
20260504223558 75 190 3.0 8.0 0.00 0.00 0.00 66 1020.4
20260504223055 75 149 3.0 8.0 0.00 0.00 0.00 66 1020.3
20260504222556 75 80 3.0 8.0 0.00 0.00 0.00 66 1020.5
20260504222055 74 130 3.0 8.0 0.00 0.00 0.00 67 1020.6
20260504221553 74 111 3.0 11.0 0.00 0.00 0.00 68 1020.6
20260504221054 74 224 4.0 11.0 0.00 0.00 0.00 68 1020.7
20260504220548 74 142 4.0 10.0 0.00 0.00 0.00 67 1020.7
20260504220047 74 120 4.0 9.0 0.00 0.00 0.00 69 1020.8
20260504215547 73 103 3.0 8.0 0.00 0.00 0.00 69 1020.7
20260504215046 73 135 3.0 8.0 0.00 0.00 0.00 68 1020.9
20260504214547 73 162 3.0 8.0 0.00 0.00 0.00 69 1021.1
20260504214048 73 156 3.0 8.0 0.00 0.00 0.00 69 1021.1
20260504213542 72 86 3.0 8.0 0.00 0.00 0.00 67 1021.1
20260504213043 72 144 2.0 8.0 0.00 0.00 0.00 69 1021.3
20260504212544 72 182 3.0 8.0 0.00 0.00 0.00 68 1021.3
20260504212042 72 219 3.0 12.0 0.00 0.00 0.00 69 1021.3
20260504211540 72 115 2.0 12.0 0.00 0.00 0.00 70 1021.3
20260504211042 71 130 3.0 8.0 0.00 0.00 0.00 72 1021.4
20260504210536 71 163 3.0 8.0 0.00 0.00 0.00 71 1021.5
20260504210034 71 207 2.0 8.0 0.00 0.00 0.00 70 1021.6
20260504205532 70 106 3.0 8.0 0.00 0.00 0.00 74 1021.6
20260504205033 70 142 3.0 8.0 0.00 0.00 0.00 73 1021.7
20260504204532 70 225 3.0 8.0 0.00 0.00 0.00 70 1021.9
20260504204034 70 184 3.0 8.0 0.00 0.00 0.00 72 1021.9
20260504203529 69 121 3.0 8.0 0.00 0.00 0.00 74 1022.0
20260504203028 69 317 3.0 8.0 0.00 0.00 0.00 73 1022.0
20260504202530 68 148 3.0 8.0 0.00 0.00 0.00 75 1022.0
20260504202029 68 153 3.0 7.0 0.00 0.00 0.00 73 1022.0
20260504201527 68 165 2.0 8.0 0.00 0.00 0.00 74 1022.1
20260504201026 67 147 2.0 8.0 0.00 0.00 0.00 74 1022.1
20260504200521 67 115 3.0 9.0 0.00 0.00 0.00 73 1022.1
20260504200021 67 157 3.0 9.0 0.00 0.00 0.00 73 1022.1
20260504195521 67 167 3.0 9.0 0.00 0.00 0.00 73 1022.1
20260504195020 67 123 3.0 9.0 0.00 0.00 0.00 74 1022.1
20260504194520 67 170 2.0 8.0 0.00 0.00 0.00 74 1022.3
20260504194022 66 201 3.0 7.0 0.00 0.00 0.00 75 1022.1
20260504193519 66 194 3.0 7.0 0.00 0.00 0.00 76 1022.2
20260504193020 65 191 3.0 7.0 0.00 0.00 0.00 76 1022.0
20260504192513 65 201 3.0 9.0 0.00 0.00 0.00 78 1022.1
20260504192012 64 133 3.0 10.0 0.00 0.00 0.00 78 1022.2
20260504191508 64 170 3.0 10.0 0.00 0.00 0.00 78 1022.3
20260504191008 64 126 3.0 10.0 0.00 0.00 0.00 77 1022.4
20260504190510 64 167 3.0 8.0 0.00 0.00 0.00 78 1022.4
20260504190008 64 131 2.0 8.0 0.00 0.00 0.00 78 1022.4
20260504185509 63 115 3.0 9.0 0.00 0.00 0.00 80 1022.5
20260504185009 63 150 3.0 9.0 0.00 0.00 0.00 80 1022.5
20260504184504 62 192 3.0 8.0 0.00 0.00 0.00 79 1022.5
20260504184006 63 182 3.0 8.0 0.00 0.00 0.00 79 1022.6
20260504183505 62 186 3.0 7.0 0.00 0.00 0.00 81 1022.5
20260504183004 62 156 3.0 8.0 0.00 0.00 0.00 80 1022.5
20260504182504 62 175 2.0 8.0 0.00 0.00 0.00 81 1022.5
20260504182006 62 204 3.0 9.0 0.00 0.00 0.00 81 1022.4
20260504181501 61 121 3.0 9.0 0.00 0.00 0.00 81 1022.5
20260504181001 61 211 3.0 9.0 0.00 0.00 0.00 81 1022.4
20260504180501 61 151 4.0 9.0 0.00 0.00 0.00 81 1022.4
20260504180001 61 163 3.0 7.0 0.00 0.00 0.00 81 1022.5
20260504175500 61 190 3.0 9.0 0.00 0.00 0.00 81 1022.4
20260504175002 61 191 3.0 9.0 0.00 0.00 0.00 81 1022.4
20260504174457 61 173 3.0 8.0 0.00 0.00 0.00 82 1022.5
20260504173957 60 144 3.0 8.0 0.00 0.00 0.00 82 1022.4
20260504173458 60 171 3.0 8.0 0.00 0.00 0.00 82 1022.4
20260504172954 60 162 2.0 9.0 0.00 0.00 0.00 82 1022.4
20260504172455 60 216 2.0 9.0 0.00 0.00 0.00 83 1022.4
20260504171953 60 195 2.0 7.0 0.00 0.00 0.00 83 1022.4
20260504171452 60 194 3.0 10.0 0.00 0.00 0.00 83 1022.4
20260504170953 59 159 3.0 10.0 0.00 0.00 0.00 83 1022.4
20260504170447 59 149 3.0 8.0 0.00 0.00 0.00 84 1022.3
20260504160435 57 165 3.0 11.0 0.00 0.00 0.00 86 1022.4
20260504150929 56 231 3.0 10.0 0.00 0.00 0.00 87 1022.2
20260504150424 56 148 4.0 10.0 0.00 0.00 0.00 87 1022.1
20260504140916 55 205 3.0 7.0 0.00 0.00 0.00 89 1021.5
20260504140412 54 153 3.0 12.0 0.00 0.00 0.00 89 1021.4
20260504130400 53 175 3.0 8.0 0.00 0.00 0.00 89 1020.6
20260504110336 54 159 2.0 8.0 0.00 0.00 0.00 89 1019.7
20260504100327 55 208 2.0 7.0 0.00 0.00 0.00 87 1019.3
20260504081810 60 271 2.0 5.0 0.00 0.00 0.00 79 1018.3
20260504081309 60 228 2.0 6.0 0.00 0.00 0.00 78 1018.3
20260504080809 60 188 2.0 6.0 0.00 0.00 0.00 78 1018.2
20260504080309 60 223 2.0 7.0 0.00 0.00 0.00 78 1018.2
20260504070302 65 236 3.0 7.0 0.00 0.00 0.00 70 1017.3
20260504050746 74 295 3.0 7.0 0.00 0.00 0.00 51 1016.4
20260504050245 74 286 3.0 8.0 0.00 0.00 0.00 51 1016.3
20260504045746 74 294 2.0 8.0 0.00 0.00 0.00 51 1016.2
20260504045246 73 292 2.0 5.0 0.00 0.00 0.00 51 1016.1
20260504044746 73 323 1.0 5.0 0.00 0.00 0.00 51 1016.1
20260504044245 74 298 0.0 3.0 0.00 0.00 0.00 52 1016.0
20260504043745 74 288 0.0 2.0 0.00 0.00 0.00 51 1015.8
20260504043244 75 288 0.0 2.0 0.00 0.00 0.00 51 1015.7
20260504042743 75 261 0.0 0.0 0.00 0.00 0.00 50 1015.6
20260504042243 76 263 0.0 0.0 0.00 0.00 0.00 49 1015.5
20260504041744 76 263 0.0 1.0 0.00 0.00 0.00 49 1015.4